Location: Ajisawe
(8.4333°N, 4.3833°E)
Time: 01:56:13
(UTC+00:00)

X-37B - Pass Details

Date: 06 March 2021
Orbit: 380 x 394 km, 45.0° (Epoch: 07 April)

Event Time Altitude Azimuth Distance (km) Brightness Sun altitude
Rises 19:10:13 0° 239° (WSW) 2,255 5.5 -19.7°
Reaches altitude 10° 19:12:25 10° 250° (WSW) 1,404 4.5 -20.2°
Maximum altitude 19:15:15 30° 314° (NW) 716 2.3 -20.9°
Enters shadow 19:16:01 27° 343° (NNW) 786 2.2 -21.1°
